TimeEST,TemperatureF,Dew PointF,Humidity,Sea Level PressureIn,VisibilityMPH,Wind Direction,Wind SpeedMPH,Gust SpeedMPH,PrecipitationIn,Events,Conditions,WindDirDegrees,DateUTC
12:54 AM,60.1,57.0,90,29.83,10.0,West,11.5,17.3,0.01,,Overcast,270,2011-11-15 05:54:00
1:54 AM,60.1,55.9,86,29.83,10.0,West,10.4,-,0.00,,Overcast,260,2011-11-15 06:54:00
2:54 AM,59.0,55.9,90,29.86,10.0,WSW,6.9,-,0.00,Rain,Light Rain,250,2011-11-15 07:54:00
3:37 AM,57.2,57.2,100,29.87,7.0,WNW,5.8,-,0.01,Rain,Light Rain,300,2011-11-15 08:37:00
3:54 AM,57.9,55.9,93,29.87,7.0,West,8.1,-,0.03,Rain,Light Rain,280,2011-11-15 08:54:00
4:54 AM,55.0,52.0,89,29.89,10.0,NW,16.1,24.2,0.00,Rain,Light Rain,320,2011-11-15 09:54:00
5:13 AM,53.6,51.8,94,29.91,10.0,NW,8.1,-,0.00,,Overcast,320,2011-11-15 10:13:00
5:54 AM,53.1,51.1,93,29.90,10.0,NW,4.6,-,0.00,Rain,Light Rain,310,2011-11-15 10:54:00
6:54 AM,53.1,51.1,93,29.90,9.0,SSE,5.8,-,0.02,Rain,Light Rain,150,2011-11-15 11:54:00
7:54 AM,53.6,51.8,94,29.94,8.0,SSE,4.6,-,N/A,Rain,Light Rain,150,2011-11-15 12:54:00
8:54 AM,53.1,52.0,96,29.94,10.0,SSE,5.8,-,0.00,,Overcast,150,2011-11-15 13:54:00
9:54 AM,53.6,53.6,100,29.96,8.0,SSE,6.9,-,N/A,,Overcast,160,2011-11-15 14:54:00
10:35 AM,53.6,53.6,100,29.95,10.0,SSE,10.4,-,0.00,Rain,Light Rain,160,2011-11-15 15:35:00
10:54 AM,54.0,53.1,97,29.94,8.0,SSE,10.4,-,0.00,Rain,Light Rain,150,2011-11-15 15:54:00
11:30 AM,55.4,53.6,94,29.95,7.0,SSE,12.7,-,0.02,Rain,Light Rain,160,2011-11-15 16:30:00
11:54 AM,55.0,54.0,96,29.92,9.0,SSE,12.7,-,0.03,Rain,Light Rain,160,2011-11-15 16:54:00
12:54 PM,55.9,54.0,93,29.89,8.0,South,12.7,-,0.02,Rain,Light Rain,170,2011-11-15 17:54:00
1:01 PM,55.4,55.4,100,29.90,8.0,SSE,13.8,-,0.01,Rain,Light Rain,160,2011-11-15 18:01:00
1:08 PM,55.4,53.6,94,29.90,8.0,SSE,11.5,-,0.01,Rain,Light Rain,160,2011-11-15 18:08:00
1:54 PM,55.9,54.0,93,29.88,10.0,South,12.7,-,0.05,Rain,Light Rain,170,2011-11-15 18:54:00
2:54 PM,55.9,53.1,90,29.87,10.0,SSE,12.7,-,0.00,Rain,Light Rain,160,2011-11-15 19:54:00
3:54 PM,55.0,54.0,96,29.87,8.0,SSE,11.5,-,0.08,Rain,Rain,160,2011-11-15 20:54:00
4:54 PM,55.0,53.1,93,29.87,8.0,SSE,11.5,-,0.06,Rain,Rain,160,2011-11-15 21:54:00
5:54 PM,55.4,53.6,94,29.88,8.0,SSE,12.7,-,N/A,Rain,Light Rain,160,2011-11-15 22:54:00
6:54 PM,55.0,53.1,93,29.87,8.0,South,13.8,-,0.11,Rain,Light Rain,170,2011-11-15 23:54:00
7:54 PM,55.0,54.0,96,29.90,10.0,South,6.9,-,0.04,Rain,Light Rain,180,2011-11-16 00:54:00
8:07 PM,55.4,53.6,94,29.90,10.0,South,4.6,-,0.00,Rain,Light Rain,170,2011-11-16 01:07:00
8:38 PM,55.4,53.6,94,29.88,10.0,South,6.9,-,0.02,Rain,Light Rain,180,2011-11-16 01:38:00
8:54 PM,55.0,54.0,96,29.88,10.0,South,6.9,-,0.02,Rain,Light Rain,170,2011-11-16 01:54:00
9:17 PM,55.4,53.6,94,29.88,10.0,SSE,6.9,-,0.00,,Overcast,160,2011-11-16 02:17:00
9:54 PM,55.0,54.0,96,29.86,10.0,Calm,Calm,-,0.00,,Overcast,0,2011-11-16 02:54:00
10:07 PM,55.4,53.6,94,29.88,10.0,Calm,Calm,-,N/A,,Overcast,0,2011-11-16 03:07:00
10:52 PM,55.4,53.6,94,29.86,10.0,Calm,Calm,-,N/A,,Overcast,0,2011-11-16 03:52:00
10:54 PM,55.0,54.0,96,29.86,10.0,Calm,Calm,-,N/A,,Overcast,0,2011-11-16 03:54:00
11:54 PM,55.0,54.0,96,29.88,10.0,Calm,Calm,-,N/A,,Overcast,0,2011-11-16 04:54:00